Regional Weather Roundup
Issued by NWS Charleston, SC

Current Version | Previous Version | Graphics & Text | Print | Product List | Glossary Off
Versions: 1 2 3 4 5 6 7 8 9 10 11 12 13 14 15 16 17 18 19 20 21 22 23 24 25 26 27 28 29 30 31 32 33 34 35 36 37 38 39 40 41 42 43 44 45 46 47 48 49 50

002
ASUS42 KCHS 210427
RWRCHS

REGIONAL WEATHER ROUNDUP
NATIONAL WEATHER SERVICE CHARLESTON SC
1100 PM EST FRI JAN 20 2017

NOTE: "FAIR" INDICATES FEW OR NO CLOUDS BELOW 12,000 FEET WITH NO
SIGNIFICANT WEATHER AND/OR OBSTRUCTIONS TO VISIBILITY.

NOT ALL STATIONS ARE QUALITY CONTROLLED. USE DATA WITH CAUTION...
ESPECIALLY DEWPOINT OBSERVATIONS.

SCZ027-030-031-034>040-042>050-210500-
...SOUTHEAST SOUTH CAROLINA...

CITY           SKY/WX    TMP DP  RH WIND       PRES   REMARKS
N CHARLESTON   MOCLDY    59  57  93 S6        29.92S
WATERFRONT PRK   N/A     62  61  96 VRB2      29.92S
MOUNT PLEASANT FAIR      61  61 100 CALM      29.93S
JOHNS ISLAND   CLOUDY    63  63 100 S8        29.93S
PINOPOLIS        N/A     64  63  94 VRB2      29.82S
MONCKS CORNER  FAIR      59  57  94 S3        29.92S
SUMMERVILLE    FAIR     N/A N/A N/A CALM      29.92S
BEAUFORT MCAS  CLOUDY    65  62  90 CALM      29.93S
BEAUFORT ARPT  CLOUDY    64  63  94 S6        29.93R
HILTON HEAD IS PTCLDY    66  64  94 S8        29.94S
WALTERBORO     CLOUDY    61  59  94 CALM      29.93S
ALLENDALE      MOCLDY    61  59  94 CALM      29.90F

...SOUTHERN MIDLANDS AND PEE DEE...

CITY           SKY/WX    TMP DP  RH WIND       PRES   REMARKS
GEORGETOWN     FAIR      59  59 100 SW5       29.93F
KINGSTREE      FAIR      61  57  88 CALM      29.91S
ORANGEBURG     PTCLDY    60  58  92 SW5       29.90S
BARNWELL       FAIR      63  59  88 CALM      29.90F
AIKEN          FAIR      57  55  94 CALM      29.94S
MANNING        FAIR      57  55  94 CALM      29.91S
COLUMBIA       CLEAR     60  55  83 CALM      29.89R
SUMTER         PTCLDY    59  56  91 S3        29.88R
FLORENCE       PTCLDY    61  59  93 S6        29.90S
MYRTLE BEACH   PTCLDY    61  55  82 SW3       29.94R
N MYRTLE BEACH PTCLDY    54  54 100 CALM      29.92R

$$

GAZ063-065-086>088-099>101-113>116-118-119-134>141-150-210500-
...SOUTHEAST GEORGIA...

CITY           SKY/WX    TMP DP  RH WIND       PRES   REMARKS
SAVANNAH ARPT  CLOUDY    66  62  87 S7        29.93S
HUNTER AAF     PTCLDY    65  65 100 CALM      29.91S
FORT STEWART   CLOUDY    64  63  94 CALM      29.90S
STATESBORO     RAIN      65  32  28 S5        29.92S
SYLVANIA       CLOUDY   N/A N/A N/A S3        29.92S
CLAXTON        MOCLDY   N/A N/A N/A CALM      29.92F

...CSRA...CENTRAL AND FAR SOUTHEAST GEORGIA...

CITY           SKY/WX    TMP DP  RH WIND       PRES   REMARKS
THOMSON        CLEAR     60  59  97 CALM      29.94S
AUGUSTA-BUSH   PTCLDY    62  57  83 CALM      29.89S
AUGUSTA-DANIEL MOCLDY    65  57  75 CALM      29.90S
SWAINSBORO     CLOUDY    64  63  94 S9        29.90S
VIDALIA        CLOUDY    68  68 100 S5        29.92R
EASTMAN        CLOUDY    66  66 100 CALM      29.93R
HAZLEHURST     LGT RAIN  69  69 100 SW7       29.91R
ALMA           CLOUDY    69  67  93 SW7       29.92S
WAYCROSS       CLOUDY    72  72 100 SW8       29.93S
JESUP          CLOUDY    68  64  88 SW3       29.93S
BAXLEY         CLOUDY    70  70 100 SW8       29.91S
BRUNSWICK      CLOUDY    72  68  88 SW6       29.94S
SAINT SIMONS   CLOUDY    70  63  78 SW7       29.93S

$$

SCZ027-028-034-036>038-045-046-048>050-GAZ119-141-210500-
...LAKE AND SUPPLEMENTAL COASTAL OBSERVATIONS...

STATION/POSITION TIME  TEMP    WIND        PRES    WAVE   SWELL
                       AIR SEA DIR/SP/G            HT/PER HT/PER/DIR
                 (UTC) (F)     (DEG/KT/KT) (MB)    (FT/S) (FT/S/D)
WINYAH BAY       0345   60     230/  3     1013.0S
LAKE MURRAY      0420   62     240/  2/  4 1011.9
ACE BASIN NERRS  0345   61        CALM     1013.0S
FORT PULASKI     0400   63 58  180/  2/  3 1013.9
SAPELO ISLAND    0400   65        CALM     1014.0

$$

ANZ835-935-AMZ111-154-330-350-352-354-370-450-454-472-210500-
...C-MAN AND BUOY OBSERVATIONS...

STATION/POSITION TIME  TEMP    WIND        PRES    WAVE   SWELL
                       AIR SEA DIR/SP/G            HT/PER HT/PER/DIR
                 (UTC) (F)     (DEG/KT/KT) (MB)    (FT/S) (FT/S/D)
BUOY 41004       0350   69 69  230/  6/  8 1013.5R   3/14   2/140/14
BUOY 41008       0350   64 61  170/  6/  8 1013.4R   2/ 5   2/140/ 5
FOLLY BEACH CMAN 0400   60     220/  6/  7 1014.0S
CAPERS NEARSHORE 0408   58 56  190/  4/  6 1013.3F
FRIPP NEARSHORE  0408   61 59  190/  4/  6 1013.3S


STATION/POSITION TIME  TEMP    WIND        PRES    WAVE   SWELL
                       AIR SEA DIR/SP/G            HT/PER HT/PER/DIR
                 (UTC) (F)     (DEG/KT/KT) (MB)    (FT/S) (FT/S/D)
5E ST. MARYS GA  0400      64                N/A     2/ 4
FRYING PAN BUOY  0410   69 71  260/ 16/ 17 1013.3
BUOY 41025       0350   63 76  340/ 12/ 16 1012.0R   4/14   3/ 70/14
CAPE LOOKOUT NC  0400   58      10/  9/ 14 1012.4R
BUOY 41002       0350   72 70  220/ 10/ 12 1013.7F   5/14   5/ 20/14
BUOY 41010       NOT AVBL
ST AUGUSTINE FL  0400   68 63  220/  4/  5 1015.5R


$$




USA.gov is the U.S. government's official web portal to all federal, state and local government web resources and services.